Location: Helstorf
(52.5868°N, 9.5862°E)
Time: 14:50:31
(UTC+00:00)

Okean 1 - Pass Details

Date: 15 May 2026
Orbit: 458 x 474 km, 82.5° (Epoch: 10 June)

Event Time Altitude Azimuth Distance (km) Brightness Sun altitude
Exits shadow 21:26:32 20° 194° (SSW) 1,149 4.5 -14.4°
Maximum altitude 21:28:56 82° 281° (W) 485 3.0 -14.6°
Drops below altitude 10° 21:32:33 10° 9° (N) 1,656 6.6 -14.8°
Sets 21:34:40 0° 11° (N) 2,542 7.6 -14.9°
